Location: Brompton
(51.4000°N, 0.5333°E)
Time: 11:55:23
(UTC+00:00)

Cosmos 1898 Rocket - Pass Details

Date: 28 September 2021
Orbit: 752 x 784 km, 74.0° (Epoch: 17 October)

Event Time Altitude Azimuth Distance (km) Brightness Sun altitude
Rises 19:28:25 0° 178° (S) 3,203 6.5 -17.2°
Reaches altitude 10° 19:30:53 10° 171° (S) 2,286 5.7 -17.6°
Maximum altitude 19:35:40 38° 104° (ESE) 1,152 3.9 -18.3°
Drops below altitude 10° 19:40:30 10° 37° (NE) 2,321 5.8 -19.0°
Sets 19:43:01 0° 30° (NNE) 3,258 6.7 -19.3°
